Flag for Equatorial Guinea Weather past 2 weeks in Malabo, Equatorial Guinea

Now
75 °F

Passing clouds.


Feels Like: 75 °F
Forecast: 73 / 80 °F
Wind: 8 mph from Southwest

Location: Malabo/Fernando Poo

Current Time: Aug 31, 2014 at 1:29:34 AM

Latest Report: Aug 31, 2014 at 1:00 AM


Visibility: N/A

Pressure: 29.92 "Hg

Humidity: 89%

Dew point: 72 °F

Location of MalaboLocation

Historic Weather in Malabo — Graph

°F

Malabo temperature yesterday

Maximum temperature yesterday: 82 °F (at 12:00 PM)
Minimum temperature yesterday: 72 °F (at 1:00 AM)
Average temperature yesterday: 78 °F

Past Weeks' High & Low Weather Summary

 TemperatureHumidityPressure
High84 °F (Aug 19, 1:00 PM)100% (Aug 20, 7:00 AM)30.04 "Hg (Aug 20, 7:00 AM)
Low70 °F (Aug 22, 3:00 AM)66% (Aug 22, 12:00 PM)29.83 "Hg (Aug 25, 5:00 PM)
Average77 °F85%29.94 "Hg
* Reported Midnight between Aug 15 and Aug 16 — Midnight between Aug 30 and Aug 31, Malabo, Weather by CustomWeather, © 2014

Note: Actual official high and low records may vary slightly from our data, if they occured in-between our weather recording intervals... More about our weather records

Advertising

Malabo weather history for previous 24 hours

 ConditionsComfort  
Time TempWeatherWind HumidityBarometerVisibility
12:00 AM
Aug 31
75 °FPassing clouds.6 mph89%29.92 "HgN/A
11:00 PM
Aug 30
77 °FPassing clouds.6 mph83%29.95 "HgN/A
10:00 PM75 °FPassing clouds.8 mph89%29.95 "HgN/A
9:00 PM77 °FPassing clouds.9 mph83%29.95 "HgN/A
8:00 PM77 °FPassing clouds.9 mph83%29.92 "HgN/A
7:00 PM77 °FPassing clouds.7 mph83%29.92 "HgN/A
6:00 PM77 °FBroken clouds.9 mph89%29.89 "HgN/A
5:00 PM79 °FDrizzle. Broken clouds.9 mph84%29.89 "Hg4 mi
4:00 PM81 °FPartly sunny.12 mph79%29.89 "HgN/A
3:00 PM82 °FBroken clouds.13 mph74%29.89 "HgN/A
2:00 PM82 °FBroken clouds.12 mph74%29.92 "HgN/A
1:00 PM82 °FBroken clouds.13 mph74%29.95 "HgN/A
12:00 PM82 °FScattered clouds.10 mph79%29.95 "HgN/A
11:00 AM81 °FPartly sunny.8 mph79%29.98 "HgN/A
10:00 AM81 °FPartly sunny.5 mph79%29.98 "HgN/A
3:00 AM73 °FPartly cloudy.3 mph94%29.89 "HgN/A
2:00 AM73 °FPartly cloudy.5 mph94%29.89 "Hg6 mi
1:00 AM72 °FPassing clouds.3 mph100%29.92 "Hg6 mi
Weather by CustomWeather, © 2014

See weather overviewHow to use our weather pages